Location: Peterborough
(44.3091°N, 78.3197°W)
Time: 05:09:18
(UTC-04:00)

Tiros 1 - Pass Details

Date: 03 April 2023
Orbit: 627 x 661 km, 48.4° (Epoch: 09 June)

Event Time Altitude Azimuth Distance (km) Brightness Sun altitude
Rises 03:03:59 0° 227° (SW) 2,956 - -34.9°
Reaches altitude 10° 03:06:21 10° 223° (SW) 2,053 - -34.7°
Maximum altitude 03:10:56 51° 147° (SSE) 824 - -34.2°
Exits shadow 03:14:06 19° 78° (ENE) 1,539 9.5 -33.9°
Drops below altitude 10° 03:15:35 10° 72° (ENE) 2,075 10.3 -33.7°
Sets 03:17:59 0° 68° (ENE) 2,992 11.4 -33.5°
